DW6431 Weather Reports


time (UTC)temp
F
wind
direction
speed
knots
gust
knots
rain 1hr
in
rain 24hr
in
rain mn
in
humidity
%
barometer
mb
20260505153319 65 91 2.6 7.0 0.00 0.34 0.34 73 1004.6
20260505150313 65 243 0.9 4.3 0.00 0.34 0.34 57 1004.8
20260505140322 62 97 0.0 1.7 0.00 0.34 0.34 24 1005.6
20260505130310 61 272 0.0 0.0 0.00 0.34 0.34 17 1005.1
20260505123325 61 281 0.0 0.9 0.00 0.34 0.34 18 1004.9
20260505020324 70 141 0.0 2.6 0.00 0.00 0.00 62 1005.3
20260505013318 71 210 0.0 2.6 0.00 0.00 0.00 61 1004.7
20260505010314 73 177 1.7 4.3 0.00 0.00 0.00 58 1004.4
20260505003328 75 76 2.6 7.0 0.00 0.00 0.00 55 1004.1
20260505000323 77 153 5.2 9.6 0.00 0.00 0.00 52 1004.0
20260504233318 79 136 3.5 9.6 0.00 0.00 0.00 49 1003.9
20260504230333 80 155 3.5 7.8 0.00 0.00 0.00 47 1004.1
20260504223326 80 260 3.5 10.4 0.00 0.00 0.00 49 1004.3
20260504220321 80 263 7.0 10.4 0.00 0.00 0.00 48 1004.5
20260504213316 79 156 7.8 13.9 0.00 0.00 0.00 45 1004.7
20260504210331 79 228 7.8 13.0 0.00 0.00 0.00 47 1004.8
20260504203346 79 183 7.8 15.6 0.00 0.00 0.00 48 1005.3
20260504200319 79 235 7.8 14.8 0.00 0.00 0.00 47 1005.4
20260504193348 79 242 8.7 15.6 0.00 0.00 0.00 50 1005.9
20260504190321 78 181 8.7 14.8 0.00 0.00 0.00 50 1006.1
20260504183316 77 203 9.6 14.8 0.00 0.00 0.00 52 1006.6
20260504180331 76 230 7.0 15.6 0.00 0.00 0.00 53 1006.8
20260504173325 77 236 7.0 13.0 0.00 0.00 0.00 52 1006.8
20260504170320 76 205 9.6 14.8 0.00 0.00 0.00 49 1007.2
20260504160329 73 255 9.6 16.5 0.00 0.00 0.00 52 1007.8